Weather History for KABI - February, 2014

Change the Weather History Date:

Friday, February 14, 2014

  Actual Average Record
Temperature  
Mean Temperature 55 °F 48 °F  
Max Temperature 68 °F 60 °F 88 °F (1979)
Min Temperature 42 °F 36 °F 5 °F (1895)
Degree Days  
Heating Degree Days 10 17  
Month to date heating degree days 410 252  
Since 1 July heating degree days 2207 1921  
Cooling Degree Days 0 0  
Month to date cooling degree days 0 0  
Year to date cooling degree days 0 1  
Growing Degree Days 6 (Base 50)    
Moisture  
Dew Point 27 °F    
Average Humidity 39    
Maximum Humidity 58    
Minimum Humidity 20    
Precipitation  
Precipitation 0.00 in 0.05 in 0.98 in (1917)
Month to date precipitation 0.47 0.65  
Year to date precipitation 0.47 1.67  
Sea Level Pressure  
Sea Level Pressure 29.92 in    
Wind  
Wind Speed 13 mph (North)    
Max Wind Speed 31 mph    
Max Gust Speed 39 mph    
Visibility 10 miles    
Events      
T = Trace of Precipitation, MM = Missing Value Source: NWS Daily Summary

Daily Weather History Graph

Daily Weather History Graph

Search for Another Location

Airport or City:

Trip Planner

Search our weather history database for the weather conditions in past years. The results will help you decide how hot, cold, wet, or windy it might be!

Date:

Astronomy

Feb. 14, 2014 Rise Set
Actual Time 7:22 AM CST 6:23 PM CST
Civil Twilight 6:57 AM CST 6:49 PM CST
Nautical Twilight 6:28 AM CST 7:17 PM CST
Astronomical Twilight 5:59 AM CST 7:46 PM CST
Moon 6:26 PM CST (2/14) 6:52 AM CST (2/14)
Length of Visible Light 11h 51m
Length of Day
11h 01m
Full, 100% of the Moon is Illuminated
Feb 14
Full
Feb 14
Full
Feb 22
Last Quarter
Mar 1
New
Mar 8
First Quarter

Hourly Weather History & Observations

Time (CST) Temp. Windchill Dew Point Humidity Pressure Visibility Wind Dir Wind Speed Gust Speed Precip Events Conditions
12:52 AM 46.9 °F - 32.0 °F 56% 29.79 in 10.0 mi South 8.1 mph - N/A   Clear
1:52 AM 48.9 °F - 30.9 °F 50% 29.75 in 10.0 mi South 5.8 mph - N/A   Clear
2:52 AM 51.1 °F - 30.9 °F 46% 29.73 in 10.0 mi SW 12.7 mph - N/A   Clear
3:52 AM 53.1 °F - 30.9 °F 43% 29.71 in 10.0 mi SSW 17.3 mph - N/A   Clear
4:52 AM 52.0 °F - 32.0 °F 47% 29.70 in 10.0 mi SW 12.7 mph - N/A   Clear
5:52 AM 54.0 °F - 33.1 °F 45% 29.72 in 10.0 mi SW 12.7 mph - N/A   Clear
6:52 AM 50.0 °F - 32.0 °F 50% 29.76 in 10.0 mi WSW 8.1 mph - N/A   Clear
7:52 AM 55.9 °F - 28.0 °F 34% 29.79 in 10.0 mi WNW 16.1 mph - N/A   Clear
8:52 AM 60.1 °F - 28.0 °F 30% 29.84 in 10.0 mi NW 16.1 mph - N/A   Clear
9:52 AM 62.1 °F - 30.0 °F 30% 29.91 in 10.0 mi NNW 24.2 mph - N/A   Clear
10:52 AM 66.0 °F - 30.0 °F 26% 29.95 in 10.0 mi North 19.6 mph 27.6 mph N/A   Clear
11:52 AM 66.0 °F - 32.0 °F 28% 29.99 in 10.0 mi North 24.2 mph 32.2 mph N/A   Clear
12:52 PM 66.9 °F - 30.0 °F 25% 30.01 in 10.0 mi North 20.7 mph 29.9 mph N/A   Clear
1:52 PM 66.9 °F - 27.0 °F 22% 29.99 in 10.0 mi NNE 19.6 mph 28.8 mph N/A   Clear
2:52 PM 66.9 °F - 25.0 °F 21% 29.98 in 10.0 mi NNE 20.7 mph 32.2 mph N/A   Clear
3:52 PM 64.9 °F - 25.0 °F 22% 29.99 in 10.0 mi NNE 16.1 mph 24.2 mph N/A   Clear
4:52 PM 64.0 °F - 23.0 °F 21% 30.00 in 10.0 mi North 17.3 mph 25.3 mph N/A   Clear
5:52 PM 62.1 °F - 23.0 °F 22% 30.03 in 10.0 mi NNE 6.9 mph - N/A   Clear
6:52 PM 57.0 °F - 23.0 °F 27% 30.06 in 10.0 mi NNE 3.5 mph - N/A   Clear
7:52 PM 52.0 °F - 24.1 °F 34% 30.06 in 10.0 mi ESE 4.6 mph - N/A   Clear
8:52 PM 53.1 °F - 21.0 °F 29% 30.09 in 10.0 mi ENE 6.9 mph - N/A   Clear
9:52 PM 48.0 °F - 21.9 °F 36% 30.08 in 10.0 mi East 6.9 mph - N/A   Clear
10:52 PM 44.1 °F 42.5 °F 23.0 °F 43% 30.08 in 10.0 mi South 3.5 mph - N/A   Clear
11:52 PM 43.0 °F - 23.0 °F 45% 30.06 in 10.0 mi Calm Calm - N/A   Clear